Location: Baia Mare
(47.6567°N, 23.5850°E)
Time: 05:41:01
(UTC+03:00)

ISS - Pass Details

Date: 21 May 2018
Orbit: 402 x 407 km, 51.6° (Epoch: 26 May)

Event Time Altitude Azimuth Distance (km) Brightness Sun altitude
Rises 01:45:28 0° 281° (W) 2,318 0.1 -22.0°
Reaches altitude 10° 01:47:38 10° 289° (WNW) 1,458 -0.9 -22.0°
Maximum altitude 01:50:43 39° 0° (N) 626 -2.4 -21.9°
Drops below altitude 10° 01:53:49 10° 71° (ENE) 1,458 -0.7 -21.8°
Sets 01:55:59 0° 80° (E) 2,317 0.3 -21.8°
